Wind_Speed
23 25 27 29 31 33 34 36 36 37 39 39 39 38 38 40 41 40 40 40 38 35 33 32 30 29 27 25 23 21 22 22 21 21 21 20 19 18 18 18 18 18 18 19
21 24 26 29 31 33 34 36 37 38 40 41 40 40 40 42 43 43 42 41 40 38 35 34 32 31 29 27 24 23 24 24 24 23 23 22 21 21 20 20 19 19 19 19
19 22 25 27 30 32 34 36 37 38 39 40 41 39 40 41 42 43 43 42 41 39 37 35 32 31 30 28 26 25 25 26 27 26 26 24 24 23 22 21 20 20 20 21
18 21 24 26 29 31 33 35 37 38 38 38 38 38 36 37 39 41 41 41 41 40 38 36 33 32 31 29 28 28 27 29 30 30 28 27 26 24 23 22 21 22 22 22
19 22 25 28 30 33 35 35 37 37 38 38 36 37 35 34 35 36 38 39 40 39 38 36 35 33 32 31 31 31 30 32 34 34 31 29 27 24 23 22 22 23 23 24
24 28 31 33 36 38 40 41 42 42 41 41 37 37 36 33 33 33 34 35 36 36 36 36 36 35 35 34 34 34 34 36 36 36 35 31 27 24 22 21 22 23 24 25
29 33 37 40 42 44 45 46 46 46 45 43 38 37 36 33 32 31 31 31 32 32 34 34 35 36 37 37 37 38 37 38 39 37 33 29 26 23 21 20 20 22 23 24
34 37 41 43 44 45 44 44 44 44 42 40 36 33 32 30 29 28 28 29 29 31 32 34 34 36 38 38 39 39 37 38 39 37 30 25 21 20 18 19 20 22 23 24
38 40 42 41 41 40 39 38 38 39 38 36 33 31 30 27 25 24 25 26 26 27 30 32 33 35 37 38 38 38 38 38 36 31 26 22 19 18 18 19 20 22 24 25
38 38 37 36 34 34 32 30 27 27 28 28 27 25 23 21 21 21 21 22 23 23 25 28 31 32 34 33 35 35 34 33 29 24 19 17 16 16 17 19 21 23 25 26
35 35 33 30 29 28 25 21 19 17 16 17 17 16 15 16 16 16 17 17 18 19 20 22 24 25 27 25 24 23 23 22 20 15 13 14 15 17 18 20 23 24 25 26
33 31 29 27 26 24 20 16 11 6 5 7 9 10 10 10 9 9 9 9 11 12 15 16 17 16 17 15 13 12 14 13 12 11 12 13 16 18 20 22 24 24 24 24
31 29 27 24 23 21 18 13 8 5 3 3 2 2 3 3 3 2 2 2 3 3 5 6 6 6 6 6 6 7 7 8 9 10 12 15 17 19 21 22 23 23 23 23
28 27 27 25 23 20 18 15 12 10 9 8 7 5 4 4 3 2 3 4 4 4 5 5 5 5 5 6 6 5 6 8 10 12 14 17 19 20 20 21 22 22 22 22
26 26 25 23 21 20 18 16 14 12 11 11 10 8 7 7 6 6 6 6 6 6 6 7 7 7 6 6 6 7 8 10 12 14 16 18 19 19 18 19 19 20 21 21
24 23 23 21 19 18 17 17 16 15 13 12 11 10 9 9 8 7 7 8 8 7 7 6 5 4 3 4 6 8 10 12 14 15 16 17 16 17 17 17 17 18 19 20
22 21 20 19 17 15 14 14 14 13 13 12 12 12 10 10 10 9 9 9 9 8 6 5 3 1 1 3 5 7 9 11 12 13 14 14 14 14 15 16 17 19 20 20
21 19 19 17 15 14 14 13 13 12 12 12 12 12 11 11 11 10 10 10 10 10 9 7 6 4 3 3 4 5 7 8 10 12 13 15 15 16 17 18 19 20 21 22
22 17 16 16 14 12 12 12 12 12 12 11 11 11 11 11 12 12 12 12 13 12 11 9 8 6 5 4 5 6 7 9 11 13 14 15 17 17 18 19 20 21 22 23
23 17 15 14 12 11 10 9 9 9 10 10 10 10 11 12 12 12 12 13 13 13 11 10 8 7 6 6 7 8 9 11 12 13 15 16 17 18 19 20 21 21 22 22
23 18 14 13 11 10 9 8 8 8 7 8 9 10 11 12 12 13 13 13 12 12 11 10 9 8 8 9 9 10 11 12 13 15 16 16 17 18 19 19 19 20 20 19
23 18 15 12 10 9 7 7 7 7 7 8 8 10 11 11 11 11 11 11 11 11 10 10 10 10 11 11 12 12 13 14 15 16 16 17 17 18 18 18 17 17 17 16
24 18 16 13 10 8 7 7 6 6 6 7 8 9 9 9 9 9 10 10 11 11 12 12 12 12 13 14 14 15 15 16 16 17 17 17 18 17 17 17 16 16 15 14
24 18 16 14 10 8 7 7 6 6 5 5 6 6 7 7 7 8 9 10 11 12 13 13 13 14 15 16 17 17 17 18 18 18 18 18 17 17 17 17 16 15 14 13
24 19 16 13 10 8 7 7 6 6 5 5 5 5 5 5 5 7 8 10 11 12 13 14 14 15 16 16 17 17 18 18 17 17 18 18 18 17 18 17 16 15 14 13
23 20 16 12 9 7 7 7 6 6 5 4 4 4 4 4 5 6 8 9 11 13 14 14 15 16 16 16 16 17 17 17 17 17 18 18 18 18 18 18 17 16 15 13
Wind_Direction
252 256 258 260 262 263 264 265 265 266 266 266 267 268 269 269 269 269 269 270 272 273 274 275 275 273 274 274 274 269 267 266 266 268 269 269 271 273 275 276 279 281 281 281
258 260 263 266 267 268 268 268 268 268 268 269 268 268 268 268 269 269 269 269 269 269 270 271 271 270 269 271 271 265 261 261 262 264 265 265 266 268 270 274 276 276 276 274
264 267 269 270 271 270 270 271 270 270 270 271 270 269 268 268 268 268 268 267 266 266 266 266 264 264 263 264 264 261 259 260 261 260 260 260 261 263 266 269 272 273 273 272
275 276 276 276 275 275 274 273 273 272 272 272 272 271 268 270 271 270 270 268 266 264 262 260 258 257 256 258 258 256 256 257 258 258 256 255 256 258 262 265 268 269 269 269
289 286 285 283 282 279 278 276 275 274 273 273 274 276 274 274 276 275 272 269 266 263 259 255 253 252 251 251 251 249 249 253 253 253 253 253 252 255 257 260 266 269 269 270
297 294 291 288 285 284 282 280 278 276 275 275 277 279 279 280 281 280 276 271 266 261 256 251 248 247 246 247 247 246 246 248 250 249 247 249 248 251 254 260 265 267 269 272
303 300 297 293 291 288 286 284 282 279 277 278 278 279 281 283 283 281 276 269 264 258 252 248 244 242 242 242 244 245 245 245 246 246 244 245 248 254 258 263 265 268 272 275
310 306 303 299 296 293 289 286 283 281 280 280 279 279 280 281 281 278 273 267 262 256 249 245 242 241 241 241 243 244 245 245 244 243 244 246 249 254 260 265 268 273 278 282
319 315 311 308 304 300 295 289 283 278 276 276 275 277 277 276 276 274 271 267 263 257 249 244 242 241 241 241 242 246 245 243 241 240 245 248 252 258 265 271 277 283 286 289
327 324 322 319 314 310 306 300 290 280 273 270 270 270 270 270 270 272 273 269 262 257 249 245 244 243 242 243 244 245 241 238 237 240 240 249 258 265 273 280 286 289 290 291
335 333 332 329 326 324 320 313 301 284 269 262 257 255 257 266 273 277 277 271 262 256 250 247 245 245 248 248 246 242 236 232 232 234 239 248 259 270 278 285 289 290 290 291
342 344 343 342 342 343 340 334 330 306 272 240 236 247 253 261 271 274 279 271 263 257 256 252 251 251 243 244 246 232 220 215 222 234 245 259 270 278 285 288 291 290 289 289
349 353 354 356 358 360 5 11 23 43 78 117 154 237 245 242 253 254 298 275 267 264 249 250 236 224 221 222 219 200 203 218 233 249 262 272 280 286 290 290 289 288 286 286
356 360 4 9 14 19 28 39 54 73 87 90 93 94 94 96 106 96 101 97 92 107 112 117 123 139 151 163 176 196 214 233 251 264 275 284 288 290 292 292 289 286 284 283
1 4 9 17 27 35 45 53 61 74 85 90 88 89 84 77 80 75 78 85 96 109 115 125 132 140 155 171 195 220 241 255 266 276 285 291 291 291 292 293 290 285 284 284
3 7 13 22 30 42 55 63 72 81 83 86 86 82 73 72 70 67 70 76 85 99 109 118 139 156 178 208 232 248 262 271 277 282 290 296 296 294 293 292 290 289 289 288
11 15 19 26 33 41 51 61 70 78 79 86 88 85 78 72 67 68 70 75 76 80 81 83 93 120 218 266 275 281 288 289 290 293 296 299 301 298 295 292 291 291 289 288
8 14 21 28 34 42 49 59 68 74 81 84 87 84 76 68 66 67 67 71 74 72 71 68 66 57 34 352 320 306 306 308 307 306 304 304 302 299 296 295 293 292 291 290
8 12 19 27 33 39 50 60 66 71 79 81 80 79 77 75 70 72 74 75 75 72 68 63 55 46 33 13 352 337 329 323 318 313 309 307 305 302 299 296 294 293 291 290
10 13 17 24 30 37 44 53 57 62 77 77 75 78 81 80 77 75 76 73 70 66 60 53 42 31 18 5 352 341 334 328 322 317 313 311 309 306 303 300 298 295 292 290
10 13 16 20 27 33 37 47 52 63 74 79 79 82 84 82 79 74 70 66 61 56 49 41 31 20 10 1 353 345 337 331 326 322 320 317 316 314 311 308 304 300 296 292
10 13 14 15 22 28 34 45 52 65 76 85 87 88 85 82 76 71 66 60 53 46 41 36 30 22 14 6 357 350 343 339 336 333 331 329 327 325 322 318 313 308 302 297
13 15 15 16 22 33 44 47 55 65 78 91 96 96 89 83 76 67 58 50 44 41 38 33 28 22 16 9 2 357 353 351 348 345 344 342 340 337 335 332 328 322 315 309
15 18 19 23 34 46 54 54 61 67 77 99 106 100 91 85 74 61 53 48 44 41 36 29 24 21 17 11 6 2 0 359 358 358 357 356 355 352 350 346 342 337 332 326
14 20 22 27 41 54 57 54 58 61 70 94 112 106 96 86 68 58 51 46 41 36 30 27 25 22 18 13 10 8 8 8 10 10 10 8 6 3 1 358 357 355 353 350
13 16 17 23 37 52 51 48 53 59 66 86 102 106 96 76 59 50 45 41 37 32 29 27 24 22 20 18 17 16 17 19 21 20 19 18 16 14 13 13 12 12 12 12
Height
5857 5858 5856 5856 5856 5855 5854 5854 5854 5854 5852 5853 5853 5854 5854 5852 5852 5853 5854 5855 5856 5858 5859 5859 5860 5860 5860 5860 5860 5859 5859 5859 5859 5859 5858 5858 5858 5859 5859 5859 5859 5860 5860 5859
5854 5852 5852 5850 5849 5848 5847 5846 5845 5845 5844 5843 5844 5845 5844 5843 5843 5843 5844 5845 5847 5849 5851 5852 5853 5853 5853 5854 5854 5854 5854 5854 5853 5853 5853 5853 5853 5853 5853 5853 5854 5854 5855 5854
5849 5849 5846 5845 5843 5841 5840 5838 5836 5836 5834 5833 5834 5836 5835 5833 5832 5833 5833 5835 5837 5839 5841 5843 5844 5846 5846 5847 5847 5848 5848 5848 5847 5847 5847 5846 5847 5847 5847 5847 5848 5849 5849 5849
5846 5844 5842 5839 5837 5834 5832 5830 5827 5826 5825 5824 5824 5823 5825 5824 5823 5823 5823 5824 5826 5829 5831 5833 5835 5837 5839 5840 5840 5841 5841 5841 5841 5840 5839 5839 5840 5841 5841 5842 5842 5843 5843 5844
5842 5839 5837 5833 5830 5826 5823 5820 5818 5816 5814 5814 5813 5812 5815 5814 5814 5813 5813 5814 5815 5818 5821 5823 5825 5828 5830 5831 5832 5833 5834 5834 5834 5833 5832 5831 5832 5834 5835 5836 5837 5837 5837 5837
5838 5834 5830 5826 5821 5817 5812 5810 5807 5805 5804 5804 5804 5803 5804 5805 5804 5804 5803 5803 5805 5807 5810 5813 5816 5818 5820 5822 5823 5824 5825 5825 5826 5826 5824 5823 5825 5827 5829 5830 5831 5831 5831 5831
5833 5827 5821 5815 5810 5806 5800 5797 5794 5792 5791 5792 5793 5792 5794 5795 5795 5795 5795 5794 5795 5797 5800 5803 5805 5808 5810 5812 5813 5815 5815 5816 5816 5816 5815 5817 5819 5821 5823 5824 5825 5825 5825 5825
5826 5819 5811 5803 5797 5791 5787 5783 5780 5778 5778 5779 5781 5782 5785 5786 5787 5787 5786 5786 5787 5788 5791 5793 5796 5798 5800 5802 5804 5805 5806 5807 5807 5807 5808 5810 5812 5814 5816 5817 5818 5818 5819 5818
5816 5809 5800 5791 5783 5777 5772 5769 5766 5765 5766 5769 5771 5773 5776 5778 5779 5780 5779 5779 5780 5781 5783 5785 5787 5789 5791 5793 5795 5795 5796 5798 5799 5800 5802 5804 5806 5808 5810 5811 5812 5812 5813 5812
5808 5799 5790 5782 5774 5766 5761 5757 5755 5754 5756 5759 5763 5766 5769 5771 5773 5774 5773 5773 5773 5774 5776 5778 5780 5782 5784 5785 5787 5787 5789 5792 5793 5795 5797 5800 5801 5803 5805 5806 5806 5807 5807 5806
5802 5794 5784 5775 5767 5760 5755 5750 5747 5747 5749 5753 5756 5762 5763 5766 5768 5769 5769 5768 5768 5769 5771 5772 5774 5776 5777 5777 5778 5781 5783 5786 5789 5792 5794 5796 5798 5799 5800 5801 5802 5802 5801 5801
5798 5789 5780 5772 5764 5757 5751 5747 5745 5745 5747 5750 5753 5760 5760 5763 5765 5765 5765 5765 5765 5766 5767 5768 5770 5771 5773 5774 5776 5778 5781 5784 5787 5790 5792 5794 5795 5797 5797 5797 5797 5796 5796 5795
5795 5787 5779 5771 5766 5759 5752 5748 5746 5746 5748 5750 5754 5760 5759 5761 5763 5763 5764 5763 5764 5765 5765 5766 5767 5770 5772 5773 5776 5778 5781 5784 5786 5789 5791 5792 5793 5793 5793 5793 5792 5791 5790 5790
5793 5786 5780 5773 5765 5759 5755 5752 5750 5750 5751 5753 5756 5759 5761 5762 5763 5763 5763 5764 5764 5765 5766 5767 5768 5770 5772 5774 5776 5779 5781 5783 5785 5787 5788 5789 5789 5789 5789 5788 5787 5786 5785 5784
5794 5787 5780 5774 5769 5764 5760 5757 5756 5755 5756 5758 5759 5761 5762 5763 5764 5764 5764 5765 5765 5766 5767 5769 5770 5772 5773 5775 5777 5779 5781 5783 5784 5785 5786 5786 5785 5785 5784 5783 5782 5781 5780 5779
5795 5789 5783 5778 5773 5769 5766 5763 5762 5762 5762 5763 5764 5765 5765 5765 5766 5766 5766 5766 5767 5768 5769 5770 5771 5773 5774 5776 5778 5779 5780 5781 5782 5782 5783 5782 5781 5780 5779 5778 5777 5776 5775 5773
5796 5791 5786 5781 5777 5775 5772 5770 5768 5767 5767 5767 5768 5769 5768 5769 5769 5769 5769 5768 5769 5770 5771 5772 5773 5774 5775 5777 5778 5779 5779 5779 5780 5780 5779 5779 5777 5776 5775 5774 5772 5771 5769 5767
5798 5793 5789 5785 5783 5779 5779 5774 5773 5773 5772 5772 5772 5772 5772 5772 5772 5772 5772 5772 5772 5773 5774 5774 5775 5775 5776 5777 5777 5778 5778 5778 5777 5777 5776 5775 5774 5772 5770 5768 5766 5765 5763 5761
5799 5795 5791 5788 5785 5783 5781 5779 5778 5777 5777 5776 5776 5776 5775 5775 5775 5775 5775 5775 5775 5775 5776 5777 5777 5777 5778 5778 5778 5777 5777 5776 5775 5774 5773 5771 5769 5767 5765 5763 5761 5759 5757 5755
5800 5796 5794 5791 5788 5786 5786 5783 5781 5782 5780 5780 5779 5779 5779 5779 5779 5779 5778 5778 5779 5779 5779 5779 5779 5779 5779 5778 5777 5776 5775 5774 5773 5771 5769 5767 5764 5762 5759 5757 5755 5752 5750 5748
5802 5798 5795 5792 5790 5788 5787 5786 5785 5785 5785 5783 5782 5782 5782 5782 5782 5782 5782 5782 5782 5781 5781 5781 5780 5780 5779 5778 5776 5775 5773 5772 5770 5767 5765 5762 5759 5757 5754 5751 5749 5746 5743 5741
5804 5799 5796 5793 5791 5792 5788 5788 5788 5788 5786 5786 5786 5785 5785 5785 5786 5786 5785 5785 5785 5784 5783 5782 5781 5779 5778 5777 5775 5773 5771 5769 5766 5764 5761 5758 5755 5752 5749 5746 5743 5740 5738 5736
5806 5802 5798 5795 5795 5791 5790 5790 5790 5789 5789 5789 5789 5789 5789 5789 5789 5789 5789 5788 5787 5786 5785 5783 5781 5779 5778 5776 5774 5772 5769 5766 5763 5760 5757 5754 5751 5748 5745 5742 5739 5736 5733 5731
5809 5804 5800 5797 5794 5793 5792 5792 5792 5792 5792 5792 5792 5792 5792 5792 5792 5792 5792 5791 5789 5788 5786 5784 5782 5780 5778 5775 5773 5770 5767 5764 5761 5758 5755 5752 5749 5746 5743 5739 5736 5733 5730 5727
5812 5807 5803 5800 5798 5796 5795 5795 5794 5794 5794 5794 5794 5794 5795 5795 5795 5794 5794 5793 5791 5790 5788 5786 5783 5781 5778 5775 5773 5770 5767 5764 5761 5759 5756 5752 5749 5746 5742 5739 5735 5731 5728 5725
5815 5811 5806 5803 5801 5800 5799 5798 5797 5797 5796 5796 5796 5797 5797 5797 5797 5796 5795 5794 5793 5791 5789 5787 5785 5782 5780 5777 5774 5771 5769 5766 5763 5760 5757 5754 5751 5747 5743 5739 5736 5732 5728 5725